Regional Weather Roundup
Issued by NWS Wakefield, VA

Home | Current Version | Previous Version | Graphics & Text | Print | Product List | Glossary On
Versions: 1 2 3 4 5 6 7 8 9 10 11 12 13 14 15 16 17 18 19 20 21 22 23 24 25 26 27 28 29 30 31 32 33 34 35 36 37 38 39 40 41 42 43 44 45 46 47 48 49 50
000
ASUS41 KAKQ 260310
RWRAKQ

REGIONAL WEATHER ROUNDUP
NATIONAL WEATHER SERVICE WAKEFIELD VA
1100 PM EDT FRI JUL 25 2014

Note: "fair" indicates few or no clouds below 12,000 feet with no
significant weather and/or obstructions to visibility. * = Denotes
station may not report precipitation (e.g., rain,snow,etc.),
thunder or fog.

VAZ042-051-052>054-056-260400-
NORTHERN VIRGINIA

CITY           SKY/WX    TMP DP  RH WIND       PRES   REMARKS
WASH NATIONAL  PTCLDY    74  61  63 S7        30.01F
DULLES         PTCLDY    70  59  68 S6        30.01F
FORT BELVOIR   CLEAR     65  63  93 CALM      30.01F
QUANTICO       CLEAR     70  65  84 NW5       30.01F
FREDERICKSBRG* CLEAR     68  65  92 CALM      30.01S
STAFFORD*      CLEAR     64  64 100 CALM      30.05F
WARRENTON      CLEAR     65  65 100 CALM      30.01S
CULPEPER*      MOCLDY   N/A N/A N/A CALM      30.02S
MANASSAS*      CLEAR     70  64  83 CALM      30.01F
LEESBURG*      CLEAR     70  63  78 SW3       30.02F
WINCHESTER     CLEAR     70  61  73 S3        30.01S
$$

VAZ048-049-060>072-079>083-260400-
CENTRAL AND SOUTH CENTRAL VIRGINIA...AND NORTH CENTRAL NORTH CAROLINA

CITY           SKY/WX    TMP DP  RH WIND       PRES   REMARKS
RICHMOND       CLEAR     70  64  81 SE5       30.02F
CHESTERFIELD*  CLEAR     68  55  64 CALM      30.04S
HANOVER        CLEAR     67  63  87 CALM      30.03F
TAPPAHANNOCK*  CLEAR     67  61  80 CALM      30.04S
CHARLOTTSVILLE CLOUDY    70  64  81 CALM      30.02S
ORANGE*        CLEAR     64  63  94 CALM      30.03S
LOUISA*        CLEAR     64  63  94 CALM      30.02R
FARMVILLE*     CLEAR     70  64  83 CALM      30.01S
SOUTH HILL*    CLEAR     70  70 100 CALM      30.09S
ROANOKE RAPIDS CLEAR     72  68  88 CALM      30.03S
RALEIGH        PTCLDY    73  67  81 SE5       30.04S
$$

VAZ088>098-260400-
SOUTHEAST VIRGINIA

CITY           SKY/WX    TMP DP  RH WIND       PRES   REMARKS
NORFOLK        CLEAR     72  59  63 SE3       30.04F
VIRGINIA BEACH CLEAR     69  60  73 S3        30.03F
NORFOLK NAVAL  PTCLDY    74  59  59 S5        30.05F
WEST POINT*    CLEAR     72  62  71 CALM      30.04F
NEWPORT NEWS   CLEAR     75  61  61 S5        30.03F
LANGLEY AFB    CLEAR     72  63  73 S3        30.03F
FORT EUSTIS    CLEAR     73  61  66 SE7       30.01F
WILLIAMSBURG*  CLEAR     72  66  83 S5        30.04F
FRANKLIN*      CLEAR     72  63  73 SE5       30.04F
WAKEFIELD      CLEAR     69  65  86 CALM      30.04F
$$

VAZ020-022-025-037-045-260400-
WESTERN AND SOUTHWEST VIRGINIA

CITY           SKY/WX    TMP DP  RH WIND       PRES   REMARKS
STAUNTON*      CLEAR     68  62  79 CALM      30.05S
HOT SPRINGS VA MOCLDY    61  59  92 S8        30.17S
LYNCHBURG      CLEAR     69  65  86 S3        30.06S
DANVILLE       CLEAR     73  66  78 CALM      30.04S
MARTINSVILLE   PTCLDY    72  67  83 CALM      30.07S
ROANOKE        MOCLDY    72  65  78 SE3       30.07S
BLACKSBURG     MOCLDY    72  68  88 E3          N/A
DUBLIN*        CLOUDY    71  67  88 CALM      30.10S
MARION*        PTCLDY   N/A N/A N/A CALM      30.14S
HILLSVILLE*    PTCLDY    67  64  90 CALM      30.13R
RICHLANDS*     PTCLDY    69  61  76 CALM      30.11S
WISE*          MOCLDY    63  63 100 CALM      30.12S
ABINGDON*      PTCLDY    65  62  88 N3        30.09R
$$

MDZ021>025-VAZ099-100-260400-
SOUTHERN MARYLAND AND THE DELMARVA PENINSULA

CITY           SKY/WX    TMP DP  RH WIND       PRES   REMARKS
PATUXENT RIVER PTCLDY    70  61  73 S5        30.02F
BAY BRIDGE APT   N/A     73  55  53 SE6       30.01F
LEONARDTOWN    CLEAR     68  59  73 CALM      30.04S
DOVER          CLEAR     66  61  84 S6        30.00F
GEORGETOWN     CLEAR     66  61  84 SE5       30.04F
EASTON         CLEAR     69  61  75 S3        30.05F
CAMBRIDGE      CLEAR     64  59  82 CALM      30.02F
SALISBURY      NOT AVBL
OCEAN CITY     CLEAR     70  62  76 S3        30.04F
WALLOPS ISLAND CLEAR     69  64  84 CALM      30.04F
ACCOMACK*        N/A     63  59  88 CALM      30.04F
$$

NCZ012>017-030>032-260400-
EASTERN NORTH CAROLINA

CITY           SKY/WX    TMP DP  RH WIND       PRES   REMARKS
ELIZABETH CITY CLEAR     72  60  66 SE3       30.06S
AHOSKIE*       CLEAR     71  67  88 CALM      30.05S
EDENTON*       CLEAR     74  64  69 SE8       30.05F
CURRITUCK*     CLEAR     68  55  62 CALM      30.07S
KILL DEVIL HLS CLEAR     73  60  63 E3        30.06S
MANTEO         NOT AVBL
CAPE HATTERAS  PTCLDY    73  68  84 NE5       30.06S
GOLDSBORO      CLOUDY    76  76  98 SE6       30.03S
WASHINGTON     PTCLDY    74  69  85 E6        30.06S
GREENVILLE     CLOUDY    77  72  83 SE6       30.06F
NEW BERN       MOCLDY    76  72  87 E3        30.05F
WILMINGTON     PTCLDY    77  74  90 CALM      30.04R
$$

VAZ048-260400-
ELSEWHERE

CITY           SKY/WX    TMP DP  RH WIND       PRES   REMARKS
HARRISBURG PA  PTCLDY    68  57  68 E3        30.00S
BALTIMORE      PTCLDY    68  57  68 CALM      30.01F
ANNAPOLIS      PTCLDY    73  59  61 S5        30.01F
ANDREWS AFB    CLEAR     65  60  82 S6        30.01F
WILMINGTON DE  CLEAR     71  53  52 SW3       30.01F
PHILADELPHIA   PTCLDY    73  58  59 S6        30.01F
WILDWOOD NJ*   CLEAR     68  63  83 S6        30.04F
ATLANTIC CITY  CLEAR     69  65  86 S7        30.03F
HENDERSON NC   CLEAR     73  64  73 CALM      30.04S
GREENSBORO     PTCLDY    74  67  78 SE8       30.04S
ROCKY MOUNT    CLEAR     73  69  87 CALM      30.04S
FAYETTEVILLE   CLOUDY    77  72  84 SE6       30.04R
CHARLOTTE      PTCLDY    75  70  84 S6        30.04R
$$

VAZ100-260400-
MARINE

STATION/POSITION TIME  TEMP    WIND        PRES    WAVE   SWELL
                       AIR SEA DIR/SP/G            HT/PER HT/PER
                 (UTC) (F)     (DEG/KT/KT) (MB)    (FT/S) (FT/S)
44066 TX TWR #4  0300   72 75  220/ 10/ 12 1017.2R   2/ 8   2/ 8
CAPE MAY NJ      0300   71 79              1016.7
LEWES DE         0300   70     190/  3/  5 1016.9S
15NM E FENWICK I 0300   74 76              1017.6F   2/ 7
OCEAN-CITY-INLET 0300   72     190/  5/  6 1017.0F
WACHAPREAGUE VA  0300   69 82              1017.3F
THOMAS POINT MD  0300   77 79  150/ 12/ 13 1016.5F
GOOSES REEF MD   0300   77     200/ 14/ 16 1016.8S
COVE POINT MD    0300   74                 1016.4F
SOLOMONS ISLAND  0300      81                N/A
BISHOPS HEAD MD  0300   77 81              1016.2
PINEY POINT MD   0300          190/ 12/ 13   N/A
POTOMAC MD       0300   77     180/ 10/ 12 1016.1F
CAMBRIDGE MD     0300   72 79              1016.3
LEWISETTA VA     0300   73     180/  5/  6 1016.4R
RAPPAHANNOCK LGT 0300                      1017.7F
STINGRAY PT      0300   77     150/  8/ 10 1017.5F
YORK RVR RNG VA  0300   77                 1016.4S
YORKTOWN VA      0300   74 80              1016.7F
JAMESTOWN VA     0300   74     170/ 12/ 14   N/A
DOMINION TERM VA 0300   76                 1017.2
KIPTOPEKE VA     0300          130/  5/  6   N/A
CHES BAY BRIDGE  0300   76     130/  6/  8 1016.8S
CAPE HENRY VA    0300   74                 1016.2F
WILLOUBY STN VA  0300          160/  9/ 10 1016.3F
S CRANEY ISL VA  0300                      1017.3F
CAPE HENRY BUOY  0300      77                N/A     2/ 7
1ST LANDING BUOY 0300   76     150/ 10/ 10 1017.0S
CAPE CHARLES BUO 0300      77                N/A     1/ 7
OFFSHORE WE BUOY 0300      79                N/A     2/ 7
64NM E OF VA BCH 0300   76 78   60/  6/  8 1017.4F   2/ 6   2/ 6
DUCK PIER NC     0300   76 77              1017.3R
44056 DUCK FRF   0300                        N/A     2/ 5
OREGON INLET NC  0300   75 81              1018.1
HATTERAS NC      0300   75      80/  6/  9 1018.4R
DIAMOND SHLS NC  0300          VRB 10/ 14  1017.7R   3/ 6   2/ 6
CAPE LOOKOUT NC  0200   79      90/ 10/ 10 1017.1R
$$



USA.gov is the U.S. government's official web portal to all federal, state and local government web resources and services.